Year,Month,Day,Hour,Minute,Value (Times are PST for temperature in C)
2015,07,18,00,00,22.90
2015,07,18,00,01,22.90
2015,07,18,00,02,22.90
2015,07,18,00,03,22.90
2015,07,18,00,04,22.80
2015,07,18,00,05,22.80
2015,07,18,00,06,22.90
2015,07,18,00,07,22.90
2015,07,18,00,08,22.90
2015,07,18,00,09,22.90
2015,07,18,00,10,22.80
2015,07,18,00,11,22.80
2015,07,18,00,12,22.80
2015,07,18,00,13,22.80
2015,07,18,00,14,22.80
2015,07,18,00,15,22.90
2015,07,18,00,16,22.80
2015,07,18,00,17,22.80
2015,07,18,00,18,22.80
2015,07,18,00,19,22.80
2015,07,18,00,20,22.80
2015,07,18,00,21,22.80
2015,07,18,00,22,22.80
2015,07,18,00,23,22.80
2015,07,18,00,24,22.80
2015,07,18,00,25,22.80
2015,07,18,00,26,22.80
2015,07,18,00,27,22.90
2015,07,18,00,28,22.90
2015,07,18,00,29,22.90
2015,07,18,00,30,22.90
2015,07,18,00,31,22.90
2015,07,18,00,32,22.90
2015,07,18,00,33,22.80
2015,07,18,00,34,22.80
2015,07,18,00,35,22.80
2015,07,18,00,36,22.80
2015,07,18,00,37,22.80
2015,07,18,00,38,22.80
2015,07,18,00,39,22.80
2015,07,18,00,40,22.80
2015,07,18,00,41,22.80
2015,07,18,00,42,22.80
2015,07,18,00,43,22.80
2015,07,18,00,44,22.70
2015,07,18,00,45,22.80
2015,07,18,00,46,22.70
2015,07,18,00,47,22.80
2015,07,18,00,48,22.80
2015,07,18,00,49,22.80
2015,07,18,00,50,22.80
2015,07,18,00,51,22.80
2015,07,18,00,52,22.80
2015,07,18,00,53,22.80
2015,07,18,00,54,22.80
2015,07,18,00,55,22.80
2015,07,18,00,56,22.80
2015,07,18,00,57,22.80
2015,07,18,00,58,22.80
2015,07,18,00,59,22.80
2015,07,18,01,00,22.80
2015,07,18,01,01,22.80
2015,07,18,01,02,22.80
2015,07,18,01,03,22.80
2015,07,18,01,04,22.90
2015,07,18,01,05,22.90
2015,07,18,01,06,22.80
2015,07,18,01,07,22.80
2015,07,18,01,08,22.80
2015,07,18,01,09,22.80
2015,07,18,01,10,22.80
2015,07,18,01,11,22.80
2015,07,18,01,12,22.70
2015,07,18,01,13,22.70
2015,07,18,01,14,22.70
2015,07,18,01,15,22.70
2015,07,18,01,16,22.70
2015,07,18,01,17,22.60
2015,07,18,01,18,22.60
2015,07,18,01,19,22.60
2015,07,18,01,20,22.60
2015,07,18,01,21,22.60
2015,07,18,01,22,22.60
2015,07,18,01,23,22.60
2015,07,18,01,24,22.60
2015,07,18,01,25,22.60
2015,07,18,01,26,22.50
2015,07,18,01,27,22.50
2015,07,18,01,28,22.50
2015,07,18,01,29,22.50
2015,07,18,01,30,22.50
2015,07,18,01,31,22.50
2015,07,18,01,32,22.50
2015,07,18,01,33,22.50
2015,07,18,01,34,22.60
2015,07,18,01,35,22.60
2015,07,18,01,36,22.60
2015,07,18,01,37,22.60
2015,07,18,01,38,22.60
2015,07,18,01,39,22.60
2015,07,18,01,40,22.60
2015,07,18,01,41,22.60
2015,07,18,01,42,22.60
2015,07,18,01,43,22.60
2015,07,18,01,44,22.50
2015,07,18,01,45,22.50
2015,07,18,01,46,22.50
2015,07,18,01,47,22.50
2015,07,18,01,48,22.50
2015,07,18,01,49,22.50
2015,07,18,01,50,22.50
2015,07,18,01,51,22.50
2015,07,18,01,52,22.50
2015,07,18,01,53,22.50
2015,07,18,01,54,22.50
2015,07,18,01,55,22.50
2015,07,18,01,56,22.50
2015,07,18,01,57,22.50
2015,07,18,01,58,22.50
2015,07,18,01,59,22.50
2015,07,18,02,00,22.50
2015,07,18,02,01,22.50
2015,07,18,02,02,22.40
2015,07,18,02,03,22.40
2015,07,18,02,04,22.40
2015,07,18,02,05,22.40
2015,07,18,02,06,22.40
2015,07,18,02,07,22.40
2015,07,18,02,08,22.40
2015,07,18,02,09,22.30
2015,07,18,02,10,22.30
2015,07,18,02,11,22.30
2015,07,18,02,12,22.30
2015,07,18,02,13,22.30
2015,07,18,02,14,22.30
2015,07,18,02,15,22.30
2015,07,18,02,16,22.30
2015,07,18,02,17,22.30
2015,07,18,02,18,22.30
2015,07,18,02,19,22.30
2015,07,18,02,20,22.30
2015,07,18,02,21,22.30
2015,07,18,02,22,22.30
2015,07,18,02,23,22.30
2015,07,18,02,24,22.30
2015,07,18,02,25,22.30
2015,07,18,02,26,22.30
2015,07,18,02,27,22.40
2015,07,18,02,28,22.40
2015,07,18,02,29,22.40
2015,07,18,02,30,22.40
2015,07,18,02,31,22.30
2015,07,18,02,32,22.30
2015,07,18,02,33,22.30
2015,07,18,02,34,22.30
2015,07,18,02,35,22.30
2015,07,18,02,36,22.30
2015,07,18,02,37,22.30
2015,07,18,02,38,22.30
2015,07,18,02,39,22.30
2015,07,18,02,40,22.30
2015,07,18,02,41,22.20
2015,07,18,02,42,22.20
2015,07,18,02,43,22.20
2015,07,18,02,44,22.20
2015,07,18,02,45,22.10
2015,07,18,02,46,22.10
2015,07,18,02,47,22.10
2015,07,18,02,48,22.10
2015,07,18,02,49,22.00
2015,07,18,02,50,22.00
2015,07,18,02,51,22.00
2015,07,18,02,52,21.90
2015,07,18,02,53,21.90
2015,07,18,02,54,21.90
2015,07,18,02,55,21.90
2015,07,18,02,56,21.90
2015,07,18,02,57,21.90
2015,07,18,02,58,21.80
2015,07,18,02,59,21.80
2015,07,18,03,00,21.80
2015,07,18,03,01,21.90
2015,07,18,03,02,21.90
2015,07,18,03,03,21.90
2015,07,18,03,04,21.90
2015,07,18,03,05,21.90
2015,07,18,03,06,21.90
2015,07,18,03,07,21.90
2015,07,18,03,08,21.80
2015,07,18,03,09,21.80
2015,07,18,03,10,21.80
2015,07,18,03,11,21.80
2015,07,18,03,12,21.80
2015,07,18,03,13,21.80
2015,07,18,03,14,21.80
2015,07,18,03,15,21.70
2015,07,18,03,16,21.70
2015,07,18,03,17,21.70
2015,07,18,03,18,21.70
2015,07,18,03,19,21.70
2015,07,18,03,20,21.70
2015,07,18,03,21,21.60
2015,07,18,03,22,21.60
2015,07,18,03,23,21.60
2015,07,18,03,24,21.60
2015,07,18,03,25,21.60
2015,07,18,03,26,21.60
2015,07,18,03,27,21.60
2015,07,18,03,28,21.70
2015,07,18,03,29,21.70
2015,07,18,03,30,21.70
2015,07,18,03,31,21.70
2015,07,18,03,32,21.70
2015,07,18,03,33,21.70
2015,07,18,03,34,21.70
2015,07,18,03,35,21.70
2015,07,18,03,36,21.70
2015,07,18,03,37,21.70
2015,07,18,03,38,21.70
2015,07,18,03,39,21.70
2015,07,18,03,40,21.60
2015,07,18,03,41,21.60
2015,07,18,03,42,21.60
2015,07,18,03,43,21.60
2015,07,18,03,44,21.60
2015,07,18,03,45,21.60
2015,07,18,03,46,21.60
2015,07,18,03,47,21.60
2015,07,18,03,48,21.60
2015,07,18,03,49,21.50
2015,07,18,03,50,21.50
2015,07,18,03,51,21.50
2015,07,18,03,52,21.40
2015,07,18,03,53,21.40
2015,07,18,03,54,21.40
2015,07,18,03,55,21.40
2015,07,18,03,56,21.40
2015,07,18,03,57,21.30
2015,07,18,03,58,21.30
2015,07,18,03,59,21.30
2015,07,18,04,00,21.30
2015,07,18,04,01,21.30
2015,07,18,04,02,21.30
2015,07,18,04,03,21.30
2015,07,18,04,04,21.30
2015,07,18,04,05,21.20
2015,07,18,04,06,21.20
2015,07,18,04,07,21.20
2015,07,18,04,08,21.20
2015,07,18,04,09,21.20
2015,07,18,04,10,21.20
2015,07,18,04,11,21.20
2015,07,18,04,12,21.20
2015,07,18,04,13,21.20
2015,07,18,04,14,21.20
2015,07,18,04,15,21.10
2015,07,18,04,16,21.10
2015,07,18,04,17,21.10
2015,07,18,04,18,21.10
2015,07,18,04,19,21.10
2015,07,18,04,20,21.10
2015,07,18,04,21,21.10
2015,07,18,04,22,21.10
2015,07,18,04,23,21.10
2015,07,18,04,24,21.10
2015,07,18,04,25,21.10
2015,07,18,04,26,21.10
2015,07,18,04,27,21.10
2015,07,18,04,28,21.10
2015,07,18,04,29,21.10
2015,07,18,04,30,21.10
2015,07,18,04,31,21.00
2015,07,18,04,32,21.00
2015,07,18,04,33,21.00
2015,07,18,04,34,21.00
2015,07,18,04,35,21.00
2015,07,18,04,36,21.00
2015,07,18,04,37,20.90
2015,07,18,04,38,20.90
2015,07,18,04,39,20.90
2015,07,18,04,40,20.90
2015,07,18,04,41,20.90
2015,07,18,04,42,20.90
2015,07,18,04,43,20.80
2015,07,18,04,44,20.80
2015,07,18,04,45,20.80
2015,07,18,04,46,20.80
2015,07,18,04,47,20.80
2015,07,18,04,48,20.80
2015,07,18,04,49,20.80
2015,07,18,04,50,20.80
2015,07,18,04,51,20.80
2015,07,18,04,52,20.80
2015,07,18,04,53,20.80
2015,07,18,04,54,20.80
2015,07,18,04,55,20.70
2015,07,18,04,56,20.70
2015,07,18,04,57,20.70
2015,07,18,04,58,20.70
2015,07,18,04,59,20.70
2015,07,18,05,00,20.70
2015,07,18,05,01,20.60
2015,07,18,05,02,20.60
2015,07,18,05,03,20.60
2015,07,18,05,04,20.50
2015,07,18,05,05,20.40
2015,07,18,05,06,20.40
2015,07,18,05,07,20.30
2015,07,18,05,08,20.30
2015,07,18,05,09,20.20
2015,07,18,05,10,20.20
2015,07,18,05,11,20.20
2015,07,18,05,12,20.20
2015,07,18,05,13,20.20
2015,07,18,05,14,20.10
2015,07,18,05,15,20.10
2015,07,18,05,16,20.10
2015,07,18,05,17,20.10
2015,07,18,05,18,20.10
2015,07,18,05,19,20.10
2015,07,18,05,20,20.10
2015,07,18,05,21,20.10
2015,07,18,05,22,20.10
2015,07,18,05,23,20.10
2015,07,18,05,24,20.10
2015,07,18,05,25,20.10
2015,07,18,05,26,20.10
2015,07,18,05,27,20.10
2015,07,18,05,28,20.10
2015,07,18,05,29,20.20
2015,07,18,05,30,20.20
2015,07,18,05,31,20.20
2015,07,18,05,32,20.20
2015,07,18,05,33,20.20
2015,07,18,05,34,20.30
2015,07,18,05,35,20.30
2015,07,18,05,36,20.30
2015,07,18,05,37,20.30
2015,07,18,05,38,20.30
2015,07,18,05,39,20.30
2015,07,18,05,40,20.30
2015,07,18,05,41,20.30
2015,07,18,05,42,20.40
2015,07,18,05,43,20.40
2015,07,18,05,44,20.40
2015,07,18,05,45,20.40
2015,07,18,05,46,20.40
2015,07,18,05,47,20.40
2015,07,18,05,48,20.40
2015,07,18,05,49,20.40
2015,07,18,05,50,20.40
2015,07,18,05,51,20.40
2015,07,18,05,52,20.40
2015,07,18,05,53,20.40
2015,07,18,05,54,20.40
2015,07,18,05,55,20.40
2015,07,18,05,56,20.40
2015,07,18,05,57,20.40
2015,07,18,05,58,20.40
2015,07,18,05,59,20.40
2015,07,18,06,00,20.50
2015,07,18,06,01,20.60
2015,07,18,06,02,20.60
2015,07,18,06,03,20.70
2015,07,18,06,04,20.70
2015,07,18,06,05,20.70
2015,07,18,06,06,20.80
2015,07,18,06,07,20.80
2015,07,18,06,08,20.80
2015,07,18,06,09,20.90
2015,07,18,06,10,20.90
2015,07,18,06,11,20.90
2015,07,18,06,12,20.90
2015,07,18,06,13,20.90
2015,07,18,06,14,20.90
2015,07,18,06,15,20.90
2015,07,18,06,16,20.90
2015,07,18,06,17,20.90
2015,07,18,06,18,21.00
2015,07,18,06,19,21.00
2015,07,18,06,20,21.00
2015,07,18,06,21,21.00
2015,07,18,06,22,21.10
2015,07,18,06,23,21.10
2015,07,18,06,24,21.10
2015,07,18,06,25,21.10
2015,07,18,06,26,21.10
2015,07,18,06,27,21.10
2015,07,18,06,28,21.10
2015,07,18,06,29,21.10
2015,07,18,06,30,21.10
2015,07,18,06,31,21.10
2015,07,18,06,32,21.20
2015,07,18,06,33,21.20
2015,07,18,06,34,21.20
2015,07,18,06,35,21.20
2015,07,18,06,36,21.20
2015,07,18,06,37,21.20
2015,07,18,06,38,21.20
2015,07,18,06,39,21.20
2015,07,18,06,40,21.20
2015,07,18,06,41,21.10
2015,07,18,06,42,21.10
2015,07,18,06,43,21.20
2015,07,18,06,44,21.20
2015,07,18,06,45,21.20
2015,07,18,06,46,21.20
2015,07,18,06,47,21.20
2015,07,18,06,48,21.20
2015,07,18,06,49,21.30
2015,07,18,06,50,21.30
2015,07,18,06,51,21.30
2015,07,18,06,52,21.30
2015,07,18,06,53,21.30
2015,07,18,06,54,21.30
2015,07,18,06,55,21.30
2015,07,18,06,56,21.30
2015,07,18,06,57,21.30
2015,07,18,06,58,21.40
2015,07,18,06,59,21.40
2015,07,18,07,00,21.40
2015,07,18,07,01,21.40
2015,07,18,07,02,21.40
2015,07,18,07,03,21.40
2015,07,18,07,04,21.40
2015,07,18,07,05,21.40
2015,07,18,07,06,21.40
2015,07,18,07,07,21.40
2015,07,18,07,08,21.40
2015,07,18,07,09,21.30
2015,07,18,07,10,21.30
2015,07,18,07,11,21.40
2015,07,18,07,12,21.40
2015,07,18,07,13,21.40
2015,07,18,07,14,21.40
2015,07,18,07,15,21.50
2015,07,18,07,16,21.50
2015,07,18,07,17,21.60
2015,07,18,07,18,21.60
2015,07,18,07,19,21.60
2015,07,18,07,20,21.60
2015,07,18,07,21,21.70
2015,07,18,07,22,21.80
2015,07,18,07,23,21.80
2015,07,18,07,24,21.80
2015,07,18,07,25,21.80
2015,07,18,07,26,21.80
2015,07,18,07,27,21.80
2015,07,18,07,28,21.90
2015,07,18,07,29,21.90
2015,07,18,07,30,21.90
2015,07,18,07,31,21.90
2015,07,18,07,32,22.00
2015,07,18,07,33,22.00
2015,07,18,07,34,22.00
2015,07,18,07,35,22.00
2015,07,18,07,36,22.10
2015,07,18,07,37,22.10
2015,07,18,07,38,22.10
2015,07,18,07,39,22.10
2015,07,18,07,40,22.10
2015,07,18,07,41,22.10
2015,07,18,07,42,22.10
2015,07,18,07,43,22.20
2015,07,18,07,44,22.20
2015,07,18,07,45,22.30
2015,07,18,07,46,22.30
2015,07,18,07,47,22.30
2015,07,18,07,48,22.40
2015,07,18,07,49,22.30
2015,07,18,07,50,22.40
2015,07,18,07,51,22.40
2015,07,18,07,52,22.40
2015,07,18,07,53,22.40
2015,07,18,07,54,22.40
2015,07,18,07,55,22.40
2015,07,18,07,56,22.50
2015,07,18,07,57,22.50
2015,07,18,07,58,22.60
2015,07,18,07,59,22.60
2015,07,18,08,00,22.70
2015,07,18,08,01,22.70
2015,07,18,08,02,22.80
2015,07,18,08,03,22.80
2015,07,18,08,04,22.90
2015,07,18,08,05,22.90
2015,07,18,08,06,22.90
2015,07,18,08,07,22.90
2015,07,18,08,08,22.90
2015,07,18,08,09,23.00
2015,07,18,08,10,23.00
2015,07,18,08,11,23.10
2015,07,18,08,12,23.10
2015,07,18,08,13,23.20
2015,07,18,08,14,23.20
2015,07,18,08,15,23.20
2015,07,18,08,16,23.20
2015,07,18,08,17,23.20
2015,07,18,08,18,23.20
2015,07,18,08,19,23.20
2015,07,18,08,20,23.20
2015,07,18,08,21,23.10
2015,07,18,08,22,23.10
2015,07,18,08,23,23.10
2015,07,18,08,24,23.10
2015,07,18,08,25,23.10
2015,07,18,08,26,23.10
2015,07,18,08,27,23.10
2015,07,18,08,28,23.10
2015,07,18,08,29,23.10
2015,07,18,08,30,23.10
2015,07,18,08,31,23.00
2015,07,18,08,32,23.00
2015,07,18,08,33,23.00
2015,07,18,08,34,23.10
2015,07,18,08,35,23.10
2015,07,18,08,36,23.20
2015,07,18,08,37,23.20
2015,07,18,08,38,23.30
2015,07,18,08,39,23.30
2015,07,18,08,40,23.30
2015,07,18,08,41,23.30
2015,07,18,08,42,23.20
2015,07,18,08,43,23.20
2015,07,18,08,44,23.10
2015,07,18,08,45,23.10
2015,07,18,08,46,23.10
2015,07,18,08,47,23.10
2015,07,18,08,48,23.10
2015,07,18,08,49,23.10
2015,07,18,08,50,23.20
2015,07,18,08,51,23.20
2015,07,18,08,52,23.20
2015,07,18,08,53,23.20
2015,07,18,08,54,23.20
2015,07,18,08,55,23.30
2015,07,18,08,56,23.30
2015,07,18,08,57,23.30
2015,07,18,08,58,23.40
2015,07,18,08,59,23.40
2015,07,18,09,00,23.40
2015,07,18,09,01,23.40
2015,07,18,09,02,23.40
2015,07,18,09,03,23.40
2015,07,18,09,04,23.50
2015,07,18,09,05,23.60
2015,07,18,09,06,23.60
2015,07,18,09,07,23.60
2015,07,18,09,08,23.60
2015,07,18,09,09,23.70
2015,07,18,09,10,23.70
2015,07,18,09,11,23.70
2015,07,18,09,12,23.70
2015,07,18,09,13,23.80
2015,07,18,09,14,23.70
2015,07,18,09,15,23.70
2015,07,18,09,16,23.70
2015,07,18,09,17,23.80
2015,07,18,09,18,23.80
2015,07,18,09,19,23.80
2015,07,18,09,20,23.80
2015,07,18,09,21,23.80
2015,07,18,09,22,23.80
2015,07,18,09,23,23.90
2015,07,18,09,24,23.90
2015,07,18,09,25,23.90
2015,07,18,09,26,23.90
2015,07,18,09,27,23.90
2015,07,18,09,28,23.80
2015,07,18,09,29,23.80
2015,07,18,09,30,23.90
2015,07,18,09,31,23.90
2015,07,18,09,32,23.90
2015,07,18,09,33,23.90
2015,07,18,09,34,23.90
2015,07,18,09,35,23.90
2015,07,18,09,36,24.00
2015,07,18,09,37,24.00
2015,07,18,09,38,24.10
2015,07,18,09,39,24.20
2015,07,18,09,40,24.20
2015,07,18,09,41,24.20
2015,07,18,09,42,24.30
2015,07,18,09,43,24.30
2015,07,18,09,44,24.40
2015,07,18,09,45,24.50
2015,07,18,09,46,24.50
2015,07,18,09,47,24.60
2015,07,18,09,48,24.60
2015,07,18,09,49,24.70
2015,07,18,09,50,24.70
2015,07,18,09,51,24.70
2015,07,18,09,52,24.80
2015,07,18,09,53,24.80
2015,07,18,09,54,24.80
2015,07,18,09,55,24.90
2015,07,18,09,56,24.90
2015,07,18,09,57,25.00
2015,07,18,09,58,25.10
2015,07,18,09,59,25.10
2015,07,18,10,00,25.10
2015,07,18,10,01,25.20
2015,07,18,10,02,25.20
2015,07,18,10,03,25.20
2015,07,18,10,04,25.20
2015,07,18,10,05,25.20
2015,07,18,10,06,25.20
2015,07,18,10,07,25.30
2015,07,18,10,08,25.40
2015,07,18,10,09,25.50
2015,07,18,10,10,25.60
2015,07,18,10,11,25.70
2015,07,18,10,12,25.70
2015,07,18,10,13,25.80
2015,07,18,10,14,25.90
2015,07,18,10,15,25.90
2015,07,18,10,16,26.00
2015,07,18,10,17,26.00
2015,07,18,10,18,25.90
2015,07,18,10,19,25.90
2015,07,18,10,20,26.00
2015,07,18,10,21,26.00
2015,07,18,10,22,26.10
2015,07,18,10,23,26.20
2015,07,18,10,24,26.30
2015,07,18,10,25,26.30
2015,07,18,10,26,26.30
2015,07,18,10,27,26.20
2015,07,18,10,28,26.10
2015,07,18,10,29,26.10
2015,07,18,10,30,26.10
2015,07,18,10,31,26.10
2015,07,18,10,32,26.20
2015,07,18,10,33,26.20
2015,07,18,10,34,26.20
2015,07,18,10,35,26.20
2015,07,18,10,36,26.20
2015,07,18,10,37,26.20
2015,07,18,10,38,26.20
2015,07,18,10,39,26.20
2015,07,18,10,40,26.20
2015,07,18,10,41,26.20
2015,07,18,10,42,26.30
2015,07,18,10,43,26.50
2015,07,18,10,44,26.60
2015,07,18,10,45,26.70
2015,07,18,10,46,26.70
2015,07,18,10,47,26.70
2015,07,18,10,48,26.60
2015,07,18,10,49,26.60
2015,07,18,10,50,26.60
2015,07,18,10,51,26.60
2015,07,18,10,52,26.60
2015,07,18,10,53,26.60
2015,07,18,10,54,26.50
2015,07,18,10,55,26.60
2015,07,18,10,56,26.60
2015,07,18,10,57,26.70
2015,07,18,10,58,26.90
2015,07,18,10,59,27.00
2015,07,18,11,00,27.00
2015,07,18,11,01,27.10
2015,07,18,11,02,27.10
2015,07,18,11,03,27.00
2015,07,18,11,04,27.00
2015,07,18,11,05,27.10
2015,07,18,11,06,27.00
2015,07,18,11,07,27.00
2015,07,18,11,08,27.00
2015,07,18,11,09,26.90
2015,07,18,11,10,26.90
2015,07,18,11,11,26.90
2015,07,18,11,12,27.00
2015,07,18,11,13,27.00
2015,07,18,11,14,27.00
2015,07,18,11,15,27.10
2015,07,18,11,16,27.10
2015,07,18,11,17,27.10
2015,07,18,11,18,27.10
2015,07,18,11,19,27.10
2015,07,18,11,20,27.10
2015,07,18,11,21,27.10
2015,07,18,11,22,27.20
2015,07,18,11,23,27.10
2015,07,18,11,24,27.00
2015,07,18,11,25,27.00
2015,07,18,11,26,27.00
2015,07,18,11,27,27.00
2015,07,18,11,28,27.10
2015,07,18,11,29,27.10
2015,07,18,11,30,27.10
2015,07,18,11,31,27.10
2015,07,18,11,32,27.10
2015,07,18,11,33,27.10
2015,07,18,11,34,27.10
2015,07,18,11,35,27.10
2015,07,18,11,36,27.10
2015,07,18,11,37,27.10
2015,07,18,11,38,26.90
2015,07,18,11,39,26.80
2015,07,18,11,40,26.70
2015,07,18,11,41,26.70
2015,07,18,11,42,26.70
2015,07,18,11,43,26.70
2015,07,18,11,44,26.70
2015,07,18,11,45,26.60
2015,07,18,11,46,26.60
2015,07,18,11,47,26.50
2015,07,18,11,48,26.50
2015,07,18,11,49,26.40
2015,07,18,11,50,26.40
2015,07,18,11,51,26.40
2015,07,18,11,52,26.40
2015,07,18,11,53,26.40
2015,07,18,11,54,26.40
2015,07,18,11,55,26.50
2015,07,18,11,56,26.60
2015,07,18,11,57,26.60
2015,07,18,11,58,26.70
2015,07,18,11,59,26.70
2015,07,18,12,00,26.70
2015,07,18,12,01,26.70
2015,07,18,12,02,26.70
2015,07,18,12,03,26.70
2015,07,18,12,04,26.70
2015,07,18,12,05,26.70
2015,07,18,12,06,26.80
2015,07,18,12,07,26.80
2015,07,18,12,08,26.90
2015,07,18,12,09,27.00
2015,07,18,12,10,27.00
2015,07,18,12,11,27.00
2015,07,18,12,12,27.00
2015,07,18,12,13,27.10
2015,07,18,12,14,27.10
2015,07,18,12,15,27.20
2015,07,18,12,16,27.30
2015,07,18,12,17,27.30
2015,07,18,12,18,27.40
2015,07,18,12,19,27.50
2015,07,18,12,20,27.60
2015,07,18,12,21,27.70
2015,07,18,12,22,27.80
2015,07,18,12,23,28.00
2015,07,18,12,24,28.10
2015,07,18,12,25,28.10
2015,07,18,12,26,28.10
2015,07,18,12,27,28.10
2015,07,18,12,28,28.10
2015,07,18,12,29,28.00
2015,07,18,12,30,27.90
2015,07,18,12,31,27.90
2015,07,18,12,32,27.90
2015,07,18,12,33,28.00
2015,07,18,12,34,28.00
2015,07,18,12,35,28.00
2015,07,18,12,36,27.90
2015,07,18,12,37,28.00
2015,07,18,12,38,27.90
2015,07,18,12,39,27.90
2015,07,18,12,40,27.90
2015,07,18,12,41,28.00
2015,07,18,12,42,28.10
2015,07,18,12,43,28.10
2015,07,18,12,44,28.20
2015,07,18,12,45,28.20
2015,07,18,12,46,28.20
2015,07,18,12,47,28.30
2015,07,18,12,48,28.40
2015,07,18,12,49,28.50
2015,07,18,12,50,28.60
2015,07,18,12,51,28.60
2015,07,18,12,52,28.70
2015,07,18,12,53,28.80
2015,07,18,12,54,28.90
2015,07,18,12,55,29.10
2015,07,18,12,56,29.20
2015,07,18,12,57,29.30
2015,07,18,12,58,29.30
2015,07,18,12,59,29.40
2015,07,18,13,00,29.50
2015,07,18,13,01,29.60
2015,07,18,13,02,29.60
2015,07,18,13,03,29.70
2015,07,18,13,04,29.80
2015,07,18,13,05,29.90
2015,07,18,13,06,29.90
2015,07,18,13,07,29.80
2015,07,18,13,08,29.80
2015,07,18,13,09,29.70
2015,07,18,13,10,29.60
2015,07,18,13,11,29.60
2015,07,18,13,12,29.60
2015,07,18,13,13,29.70
2015,07,18,13,14,29.50
2015,07,18,13,15,29.40
2015,07,18,13,16,29.30
2015,07,18,13,17,29.30
2015,07,18,13,18,29.30
2015,07,18,13,19,29.40
2015,07,18,13,20,29.40
2015,07,18,13,21,29.50
2015,07,18,13,22,29.60
2015,07,18,13,23,29.70
2015,07,18,13,24,29.70
2015,07,18,13,25,29.70
2015,07,18,13,26,29.70
2015,07,18,13,27,29.80
2015,07,18,13,28,29.80
2015,07,18,13,29,29.90
2015,07,18,13,30,29.80
2015,07,18,13,31,29.80
2015,07,18,13,32,29.80
2015,07,18,13,33,29.90
2015,07,18,13,34,29.90
2015,07,18,13,35,30.00
2015,07,18,13,36,30.10
2015,07,18,13,37,30.20
2015,07,18,13,38,30.30
2015,07,18,13,39,30.30
2015,07,18,13,40,30.30
2015,07,18,13,41,30.30
2015,07,18,13,42,30.20
2015,07,18,13,43,30.20
2015,07,18,13,44,30.30
2015,07,18,13,45,30.30
2015,07,18,13,46,30.40
2015,07,18,13,47,30.50
2015,07,18,13,48,30.60
2015,07,18,13,49,30.60
2015,07,18,13,50,30.70
2015,07,18,13,51,30.80
2015,07,18,13,52,30.90
2015,07,18,13,53,30.90
2015,07,18,13,54,30.90
2015,07,18,13,55,31.00
2015,07,18,13,56,31.00
2015,07,18,13,57,31.00
2015,07,18,13,58,31.10
2015,07,18,13,59,31.10
2015,07,18,14,00,31.10
2015,07,18,14,01,31.10
2015,07,18,14,02,31.10
2015,07,18,14,03,31.00
2015,07,18,14,04,30.90
2015,07,18,14,05,30.70
2015,07,18,14,06,30.50
2015,07,18,14,07,30.40
2015,07,18,14,08,30.30
2015,07,18,14,09,30.30
2015,07,18,14,10,30.30
2015,07,18,14,11,30.30
2015,07,18,14,12,30.30
2015,07,18,14,13,30.20
2015,07,18,14,14,30.10
2015,07,18,14,15,30.00
2015,07,18,14,16,30.00
2015,07,18,14,17,29.90
2015,07,18,14,18,29.90
2015,07,18,14,19,29.90
2015,07,18,14,20,29.90
2015,07,18,14,21,29.90
2015,07,18,14,22,29.90
2015,07,18,14,23,30.00
2015,07,18,14,24,30.10
2015,07,18,14,25,30.20
2015,07,18,14,26,30.20
2015,07,18,14,27,30.20
2015,07,18,14,28,30.30
2015,07,18,14,29,30.30
2015,07,18,14,30,30.40
2015,07,18,14,31,30.40
2015,07,18,14,32,30.40
2015,07,18,14,33,30.50
2015,07,18,14,34,30.60
2015,07,18,14,35,30.60
2015,07,18,14,36,30.70
2015,07,18,14,37,30.70
2015,07,18,14,38,30.80
2015,07,18,14,39,30.80
2015,07,18,14,40,30.80
2015,07,18,14,41,30.80
2015,07,18,14,42,30.80
2015,07,18,14,43,30.80
2015,07,18,14,44,30.80
2015,07,18,14,45,30.90
2015,07,18,14,46,30.90
2015,07,18,14,47,30.90
2015,07,18,14,48,30.90
2015,07,18,14,49,30.90
2015,07,18,14,50,31.00
2015,07,18,14,51,31.00
2015,07,18,14,52,31.10
2015,07,18,14,53,31.10
2015,07,18,14,54,31.00
2015,07,18,14,55,31.00
2015,07,18,14,56,30.90
2015,07,18,14,57,30.80
2015,07,18,14,58,30.80
2015,07,18,14,59,30.70
2015,07,18,15,00,30.60
2015,07,18,15,01,30.40
2015,07,18,15,02,30.30
2015,07,18,15,03,30.30
2015,07,18,15,04,30.30
2015,07,18,15,05,30.30
2015,07,18,15,06,30.30
2015,07,18,15,07,30.40
2015,07,18,15,08,30.50
2015,07,18,15,09,30.60
2015,07,18,15,10,30.60
2015,07,18,15,11,30.60
2015,07,18,15,12,30.70
2015,07,18,15,13,30.80
2015,07,18,15,14,30.80
2015,07,18,15,15,30.80
2015,07,18,15,16,30.80
2015,07,18,15,17,30.70
2015,07,18,15,18,30.60
2015,07,18,15,19,30.60
2015,07,18,15,20,30.40
2015,07,18,15,21,30.30
2015,07,18,15,22,30.20
2015,07,18,15,23,30.10
2015,07,18,15,24,30.10
2015,07,18,15,25,30.20
2015,07,18,15,26,30.30
2015,07,18,15,27,30.40
2015,07,18,15,28,30.50
2015,07,18,15,29,30.60
2015,07,18,15,30,30.60
2015,07,18,15,31,30.60
2015,07,18,15,32,30.60
2015,07,18,15,33,30.60
2015,07,18,15,34,30.60
2015,07,18,15,35,30.60
2015,07,18,15,36,30.70
2015,07,18,15,37,30.80
2015,07,18,15,38,30.90
2015,07,18,15,39,31.00
2015,07,18,15,40,31.10
2015,07,18,15,41,31.10
2015,07,18,15,42,31.00
2015,07,18,15,43,31.00
2015,07,18,15,44,31.00
2015,07,18,15,45,31.00
2015,07,18,15,46,31.00
2015,07,18,15,47,31.10
2015,07,18,15,48,31.10
2015,07,18,15,49,31.20
2015,07,18,15,50,31.20
2015,07,18,15,51,31.20
2015,07,18,15,52,31.20
2015,07,18,15,53,31.20
2015,07,18,15,54,31.20
2015,07,18,15,55,31.20
2015,07,18,15,56,31.20
2015,07,18,15,57,31.20
2015,07,18,15,58,31.20
2015,07,18,15,59,31.20
2015,07,18,16,00,31.20
2015,07,18,16,01,31.20
2015,07,18,16,02,31.30
2015,07,18,16,03,31.30
2015,07,18,16,04,31.40
2015,07,18,16,05,31.30
2015,07,18,16,06,31.20
2015,07,18,16,07,31.20
2015,07,18,16,08,31.10
2015,07,18,16,09,31.10
2015,07,18,16,10,31.10
2015,07,18,16,11,30.90
2015,07,18,16,12,30.80
2015,07,18,16,13,30.70
2015,07,18,16,14,30.60
2015,07,18,16,15,30.60
2015,07,18,16,16,30.70
2015,07,18,16,17,30.80
2015,07,18,16,18,30.90
2015,07,18,16,19,31.00
2015,07,18,16,20,31.20
2015,07,18,16,21,31.30
2015,07,18,16,22,31.30
2015,07,18,16,23,31.30
2015,07,18,16,24,31.20
2015,07,18,16,25,31.20
2015,07,18,16,26,31.20
2015,07,18,16,27,31.10
2015,07,18,16,28,31.00
2015,07,18,16,29,30.80
2015,07,18,16,30,30.50
2015,07,18,16,31,30.20
2015,07,18,16,32,30.00
2015,07,18,16,33,29.80
2015,07,18,16,34,29.70
2015,07,18,16,35,29.60
2015,07,18,16,36,29.50
2015,07,18,16,37,29.40
2015,07,18,16,38,29.30
2015,07,18,16,39,29.20
2015,07,18,16,40,29.10
2015,07,18,16,41,29.10
2015,07,18,16,42,29.00
2015,07,18,16,43,29.00
2015,07,18,16,44,29.10
2015,07,18,16,45,29.10
2015,07,18,16,46,29.00
2015,07,18,16,47,28.90
2015,07,18,16,48,28.70
2015,07,18,16,49,28.70
2015,07,18,16,50,28.70
2015,07,18,16,51,28.70
2015,07,18,16,52,28.60
2015,07,18,16,53,28.50
2015,07,18,16,54,28.40
2015,07,18,16,55,28.30
2015,07,18,16,56,28.30
2015,07,18,16,57,28.20
2015,07,18,16,58,28.10
2015,07,18,16,59,28.00
2015,07,18,17,00,27.90
2015,07,18,17,01,27.90
2015,07,18,17,02,27.90
2015,07,18,17,03,28.00
2015,07,18,17,04,28.00
2015,07,18,17,05,28.10
2015,07,18,17,06,28.10
2015,07,18,17,07,28.10
2015,07,18,17,08,28.20
2015,07,18,17,09,28.20
2015,07,18,17,10,28.20
2015,07,18,17,11,28.10
2015,07,18,17,12,28.20
2015,07,18,17,13,28.30
2015,07,18,17,14,28.40
2015,07,18,17,15,28.50
2015,07,18,17,16,28.60
2015,07,18,17,17,28.60
2015,07,18,17,18,28.50
2015,07,18,17,19,28.40